Location: Unspecified
(0.0000°N, 0.0000°E)
Time: 11:13:21
(UTC+00:00)

A-11 Canister half - Pass Details

Date: 20 November 2019
Orbit: 1515 x 1685 km, 47.2° (Epoch: 13 December)

Event Time Altitude Azimuth Distance (km) Brightness Sun altitude
Rises 13:16:51 0° 206° (SSW) 4,711 12.0 60.2°
Reaches altitude 10° 13:20:07 10° 199° (SSW) 3,747 11.6 59.6°
Maximum altitude 13:28:59 43° 130° (SE) 2,117 10.3 57.9°
Drops below altitude 10° 13:38:07 10° 62° (ENE) 3,866 10.9 56.1°
Sets 13:41:30 0° 55° (NE) 4,873 11.3 55.4°
